Location: Airlie Beach - Cannonvale QLD, Australia
(20.2768°S, 148.7558°E)
Time: 00:13:33
(UTC+10:00)

Hubble Space Telescope - Pass Details

Date: 27 May 2026
Orbit: 473 x 475 km, 28.5° (Epoch: 5 June)

Event Time Altitude Azimuth Distance (km) Brightness Sun altitude
Rises 19:31:01 0° 248° (WSW) 2,515 5.0 -27.2°
Reaches altitude 10° 19:33:13 10° 247° (WSW) 1,636 3.9 -27.7°
Enters shadow 19:34:41 22° 245° (WSW) 1,070 2.7 -28.0°
